CW3847 La Orotava ES current weather conditions

sailwx.info

Wind from 169 at 2 knots gusting 6

Air temperature 15.0° C
Dewpoint 11.0° C

Last reported at 2016-May-28 22:45 UTC.
Time now 2016-May-29 00:03 UTC

Location: N 28°23' W 016°31'.
View on Google Maps.

See reports from other nearby stations

  
Tides and Currents Weather Stations Pressure Air Temp Water Temp Dewpoint Dewpoint Depression Visibility Wind Speed Wind Dir Waves Ship Positions
date/time (UTC)wind fromknots sea level pressurealtimeterstation pressurevisibilityair tempwater tempwave heightnotes
2016-May-28 23:45 162 1 gusting 4 15.6
2016-May-28 23:40 163 1 gusting 3 15.6
2016-May-28 23:35 161 2 gusting 6 15.6
2016-May-28 23:30 161 3 gusting 6 15.6
2016-May-28 23:25 161 3 gusting 7 15.6
2016-May-28 23:20 162 4 gusting 9 15.6
2016-May-28 23:15 166 4 gusting 9 15.6
2016-May-28 23:10 166 3 gusting 7 15.0
2016-May-28 23:00 170 4 gusting 7 15.0
2016-May-28 22:55 168 3 gusting 6 15.0
2016-May-28 22:50 167 3 gusting 6 15.0
2016-May-28 22:45 169 2 gusting 6 15.0
2016-May-28 22:40 171 2 gusting 5 15.6
2016-May-28 22:35 171 3 gusting 6 15.6
2016-May-28 22:30 173 3 gusting 6 15.6
2016-May-28 22:25 171 3 gusting 6 15.6
2016-May-28 22:20 170 3 gusting 6 15.6
2016-May-28 22:15 171 4 gusting 7 15.6
2016-May-28 22:10 171 4 gusting 7 15.6
2016-May-28 22:05 171 4 gusting 7 15.6
2016-May-28 22:00 170 4 gusting 8 15.6
2016-May-28 21:55 171 4 gusting 8 15.6
2016-May-28 21:50 172 3 gusting 6 16.1
2016-May-28 21:45 175 3 gusting 6 16.1
2016-May-28 21:40 176 2 gusting 6 16.7
2016-May-28 21:35 173 2 gusting 5 16.7
2016-May-28 21:30 181 2 gusting 5 16.7
2016-May-28 21:25 203 1 gusting 3 16.7
2016-May-28 21:20 238 1 gusting 3 16.7
2016-May-28 21:15 304 1 gusting 3 17.2
2016-May-28 21:10 340 1 gusting 3 17.2
2016-May-28 21:05 356 0 gusting 2 17.2
2016-May-28 21:00 006 0 gusting 2 17.2
2016-May-28 20:55 002 1 gusting 4 17.2
2016-May-28 20:50 351 1 gusting 4 17.2
2016-May-28 20:45 353 1 gusting 4 17.2
2016-May-28 20:40 006 1 gusting 3 17.2
2016-May-28 20:35 011 1 gusting 3 17.2
2016-May-28 20:30 011 2 gusting 5 17.2
2016-May-28 20:25 010 1 gusting 5 17.2
2016-May-28 20:20 007 1 gusting 5 17.2
2016-May-28 20:15 003 2 gusting 5 17.2
2016-May-28 20:10 006 2 gusting 6 17.2
2016-May-28 20:05 357 3 gusting 6 17.8
2016-May-28 20:00 340 3 gusting 6 17.8
2016-May-28 19:55 332 2 gusting 6 17.8
2016-May-28 19:50 341 1 gusting 5 17.8
2016-May-28 19:45 003 1 gusting 3 17.8
2016-May-28 19:40 003 1 gusting 3 17.8
2016-May-28 19:35 351 1 gusting 4 17.8
2016-May-28 19:30 006 2 gusting 4 17.8
2016-May-28 19:25 010 1 gusting 4 17.8
2016-May-28 19:20 008 1 gusting 5 17.8
2016-May-28 19:15 021 1 gusting 5 17.8
2016-May-28 19:10 011 1 gusting 4 17.8
2016-May-28 19:05 003 0 gusting 3 17.8
2016-May-28 19:00 016 1 gusting 4 17.8
2016-May-28 18:55 005 2 gusting 4 17.8
2016-May-28 18:50 012 2 gusting 4 17.8
2016-May-28 18:45 031 1 gusting 4 17.8
2016-May-28 18:40 009 1 gusting 5 17.8
2016-May-28 18:35 352 2 gusting 6 17.8
2016-May-28 18:30 350 3 gusting 6 17.8
2016-May-28 18:25 359 2 gusting 6 17.8
2016-May-28 18:20 005 2 gusting 6 17.8
2016-May-28 18:15 356 2 gusting 6 17.8
2016-May-28 18:10 356 3 gusting 6 17.8
2016-May-28 18:05 349 3 gusting 5 17.8
2016-May-28 18:00 350 2 gusting 6 18.3
2016-May-28 17:55 357 1 gusting 6 17.8
2016-May-28 17:50 344 2 gusting 5 17.8
2016-May-28 17:45 344 3 gusting 5 17.8
2016-May-28 17:40 002 2 gusting 4 17.8
2016-May-28 17:35 013 2 gusting 4 17.8
2016-May-28 17:30 001 2 gusting 4 17.8
2016-May-28 17:25 350 1 gusting 4 17.8
2016-May-28 17:20 337 2 gusting 5 17.8
2016-May-28 17:15 330 2 gusting 5 17.8
2016-May-28 17:10 337 2 gusting 5 17.8
2016-May-28 17:05 359 1 gusting 5 17.8
2016-May-28 17:00 012 1 gusting 4 18.3
2016-May-28 16:55 009 2 gusting 4 18.3
2016-May-28 16:50 351 2 gusting 5 18.3
2016-May-28 16:45 346 1 gusting 5 18.3
2016-May-28 16:40 359 1 gusting 5 18.3
2016-May-28 16:35 357 2 gusting 7 18.3
2016-May-28 16:30 342 3 gusting 7 18.3
2016-May-28 16:25 317 2 gusting 7 18.3
2016-May-28 16:20 296 1 gusting 6 18.3
2016-May-28 16:15 258 0 gusting 3 18.9
2016-May-28 16:10 290 0 gusting 3 18.9
2016-May-28 16:05 355 0 gusting 2 18.3
2016-May-28 16:00 355 0 gusting 2 18.3
2016-May-28 15:55 357 0 gusting 2 18.3
2016-May-28 15:50 001 0 gusting 2 18.3
2016-May-28 15:45 001 0 gusting 2 18.3
2016-May-28 15:40 352 0 gusting 2 18.3
2016-May-28 15:35 348 0 gusting 2 18.3
2016-May-28 15:30 340 1 gusting 5 18.3
2016-May-28 15:25 342 1 gusting 5 18.3
2016-May-28 15:20 351 0 gusting 2 18.3
2016-May-28 15:15 346 0 gusting 3 17.8
2016-May-28 15:10 347 1 gusting 3 17.8
2016-May-28 15:05 347 1 gusting 4 17.8
2016-May-28 15:00 339 1 gusting 6 17.8
2016-May-28 14:55 334 1 gusting 6 17.8
2016-May-28 14:50 333 1 gusting 5 18.3
2016-May-28 14:45 349 1 gusting 4 18.3
2016-May-28 14:40 016 1 gusting 4 18.3
2016-May-28 14:35 010 1 gusting 4 18.3
2016-May-28 14:30 351 1 gusting 4 18.3
2016-May-28 14:25 344 1 gusting 3 18.3
2016-May-28 14:20 327 1 gusting 4 18.3
2016-May-28 14:15 316 1 gusting 4 18.3
2016-May-28 14:10 324 1 gusting 4 18.3
2016-May-28 14:05 336 1 gusting 5 18.3
2016-May-28 14:00 336 2 gusting 6 18.3
2016-May-28 13:55 346 3 gusting 6 17.8
2016-May-28 13:50 355 3 gusting 7 18.3
2016-May-28 13:45 342 3 gusting 8 18.3
2016-May-28 13:40 336 2 gusting 8 18.3
2016-May-28 13:35 337 1 gusting 5 18.3
2016-May-28 13:30 330 1 gusting 5 18.3
2016-May-28 13:25 334 1 gusting 6 18.3
2016-May-28 13:20 346 2 gusting 6 18.3
2016-May-28 13:15 347 3 gusting 6 18.3
2016-May-28 13:10 350 3 gusting 6 18.3
2016-May-28 13:05 359 2 gusting 6 18.3
2016-May-28 13:00 341 1 gusting 4 18.3
2016-May-28 12:55 308 1 gusting 3 18.3
2016-May-28 12:50 312 1 gusting 6 18.3
2016-May-28 12:45 318 2 gusting 6 18.3
2016-May-28 12:40 322 1 gusting 4 18.3
2016-May-28 12:35 345 1 gusting 4 18.3
2016-May-28 12:30 001 2 gusting 4 18.3
2016-May-28 12:25 008 2 gusting 6 18.3
2016-May-28 12:20 014 2 gusting 6 18.3
2016-May-28 12:15 007 2 gusting 4 18.3
2016-May-28 12:10 357 2 gusting 6 18.3
2016-May-28 12:05 354 3 gusting 6 18.3
2016-May-28 12:00 356 2 gusting 6 18.9
2016-May-28 11:55 358 2 gusting 6 18.9
2016-May-28 11:50 346 2 gusting 5 18.9
2016-May-28 11:45 338 2 gusting 6 18.9
2016-May-28 11:40 336 3 gusting 6 18.9
2016-May-28 11:35 333 3 gusting 7 18.9
2016-May-28 11:30 337 3 gusting 8 18.9
2016-May-28 11:25 354 3 gusting 8 19.4
2016-May-28 11:20 358 3 gusting 7 18.9
2016-May-28 11:15 343 5 gusting 10 19.4
2016-May-28 11:10 338 5 gusting 10 19.4
2016-May-28 11:05 345 3 gusting 9 19.4
2016-May-28 11:00 338 4 gusting 8 19.4
2016-May-28 10:55 331 5 gusting 9 19.4
2016-May-28 10:50 337 5 gusting 9 20.0
2016-May-28 10:45 359 3 gusting 8 20.0
2016-May-28 10:40 022 2 gusting 7 20.0
2016-May-28 10:35 016 3 gusting 6 20.0
2016-May-28 10:30 020 2 gusting 6 20.6
2016-May-28 10:25 010 1 gusting 4 20.6
2016-May-28 10:20 338 2 gusting 5 20.0
2016-May-28 10:15 333 2 gusting 6 20.0
2016-May-28 10:10 349 2 gusting 6 20.0
2016-May-28 10:05 002 4 gusting 8 20.0
2016-May-28 10:00 359 4 gusting 8 20.0
2016-May-28 09:55 001 3 gusting 7 19.4
2016-May-28 09:50 355 4 gusting 8 19.4
2016-May-28 09:45 346 4 gusting 8 19.4
2016-May-28 09:40 353 3 gusting 8 20.0
2016-May-28 09:35 358 3 gusting 8 20.0
2016-May-28 09:30 018 3 gusting 8 20.0
2016-May-28 09:25 047 2 gusting 6 20.0
2016-May-28 09:20 038 2 gusting 6 19.4
2016-May-28 09:15 037 2 gusting 6 20.0
2016-May-28 09:10 023 1 gusting 4 20.0
2016-May-28 09:05 009 2 gusting 4 19.4
2016-May-28 09:00 011 2 gusting 5 19.4
2016-May-28 08:55 018 1 gusting 5 20.0
2016-May-28 08:50 029 0 gusting 2 20.0
2016-May-28 08:45 027 0 gusting 3 20.0
2016-May-28 08:40 024 0 gusting 3 20.0
2016-May-28 08:35 353 0 gusting 3 19.4
2016-May-28 08:30 347 0 gusting 3 19.4
2016-May-28 08:25 246 0 gusting 3 19.4
2016-May-28 08:20 216 18.9
2016-May-28 08:15 216 0 gusting 1 18.9
2016-May-28 08:10 216 0 gusting 1 18.9
2016-May-28 08:05 200 0 gusting 2 18.9
2016-May-28 08:00 183 18.3
2016-May-28 07:55 161 18.3
2016-May-28 07:50 161 17.8
2016-May-28 07:45 160 0 gusting 3 17.2
2016-May-28 07:40 160 1 gusting 4 16.7
2016-May-28 07:35 160 2 gusting 4 16.7
2016-May-28 07:30 159 2 gusting 5 16.1
2016-May-28 07:25 159 3 gusting 5 16.1
2016-May-28 07:20 160 4 gusting 5 15.6
2016-May-28 07:15 159 4 gusting 6 15.6
2016-May-28 07:10 159 4 gusting 6 15.0
2016-May-28 07:05 161 3 gusting 6 15.0
2016-May-28 07:00 163 3 gusting 6 15.0
2016-May-28 06:55 160 3 gusting 6 15.0
2016-May-28 06:50 158 4 gusting 6 15.0
2016-May-28 06:45 160 5 gusting 7 15.0
2016-May-28 06:40 161 5 gusting 7 15.0
2016-May-28 06:35 163 4 gusting 6 15.0
2016-May-28 06:30 164 5 gusting 9 15.0
2016-May-28 06:25 160 6 gusting 9 15.0
2016-May-28 06:20 158 6 gusting 9 15.0
2016-May-28 06:15 160 5 gusting 8 14.4
2016-May-28 06:10 165 5 gusting 9 14.4
2016-May-28 06:05 167 5 gusting 9 14.4
2016-May-28 06:00 168 4 gusting 7 14.4
2016-May-28 05:55 170 4 gusting 7 14.4
2016-May-28 05:50 171 4 gusting 6 14.4
2016-May-28 05:45 170 4 gusting 7 14.4
2016-May-28 05:40 169 4 gusting 7 14.4
2016-May-28 05:35 168 4 gusting 6 14.4
2016-May-28 05:30 168 4 gusting 6 14.4
2016-May-28 05:25 169 4 gusting 6 14.4
2016-May-28 05:20 168 3 gusting 6 14.4
2016-May-28 05:15 166 3 gusting 5 14.4
2016-May-28 05:10 168 3 gusting 6 14.4
2016-May-28 05:05 171 3 gusting 6 14.4
2016-May-28 05:00 174 3 gusting 5 14.4
2016-May-28 04:55 173 3 gusting 6 14.4
2016-May-28 04:50 168 3 gusting 6 14.4
2016-May-28 04:45 163 3 gusting 6 14.4
2016-May-28 04:40 164 3 gusting 5 15.0
2016-May-28 04:35 169 3 gusting 6 14.4
2016-May-28 04:30 172 3 gusting 6 14.4
2016-May-28 04:25 169 2 gusting 5 15.0
2016-May-28 04:20 167 3 gusting 6 15.0
2016-May-28 04:15 170 3 gusting 6 15.0
2016-May-28 04:10 170 3 gusting 6 15.0
2016-May-28 04:05 169 3 gusting 6 15.0
2016-May-28 04:00 168 3 gusting 6 15.0
2016-May-28 03:55 166 3 gusting 5 15.0
2016-May-28 03:50 163 3 gusting 6 15.0
2016-May-28 03:45 162 4 gusting 6 15.0
2016-May-28 03:40 165 3 gusting 6 15.0
2016-May-28 03:30 169 2 gusting 4 15.0
2016-May-28 03:25 167 3 gusting 5 15.0
2016-May-28 03:20 168 3 gusting 5 15.0
2016-May-28 03:15 168 3 gusting 6 15.0
2016-May-28 03:10 166 3 gusting 6 15.0
2016-May-28 03:05 166 3 gusting 6 15.0
2016-May-28 02:55 168 4 gusting 6 15.0
2016-May-28 02:50 170 4 gusting 6 15.0
2016-May-28 02:45 169 3 gusting 6 15.0
2016-May-28 02:40 168 3 gusting 6 15.0
2016-May-28 02:35 166 3 gusting 6 15.0
2016-May-28 02:30 168 3 gusting 7 15.0
2016-May-28 02:25 168 4 gusting 7 15.0
2016-May-28 02:20 168 4 gusting 6 15.0
2016-May-28 02:15 170 4 gusting 6 15.0
2016-May-28 02:10 170 4 gusting 6 15.0
2016-May-28 02:05 165 3 gusting 6 15.0
2016-May-28 02:00 160 2 gusting 5 15.0
2016-May-28 01:55 161 2 gusting 4 15.0
2016-May-28 01:50 165 3 gusting 6 15.0
2016-May-28 01:45 169 3 gusting 6 15.0
2016-May-28 01:40 169 3 gusting 6 15.0
2016-May-28 01:35 165 3 gusting 6 15.0
2016-May-28 01:30 165 3 gusting 6 15.0
2016-May-28 01:25 167 3 gusting 6 15.0
2016-May-28 01:20 168 3 gusting 5 15.0
2016-May-28 01:15 167 3 gusting 7 15.0
2016-May-28 01:10 166 4 gusting 7 15.0
2016-May-28 01:05 167 4 gusting 7 15.0
2016-May-28 01:00 165 4 gusting 7 15.0
2016-May-28 00:55 168 4 gusting 6 15.0
2016-May-28 00:50 170 4 gusting 8 15.0
2016-May-28 00:45 170 4 gusting 8 15.6
2016-May-28 00:40 169 4 gusting 8 15.6
2016-May-28 00:35 167 3 gusting 6 15.6
2016-May-28 00:30 165 3 gusting 6 15.6
2016-May-28 00:20 167 4 gusting 7 15.6
2016-May-28 00:15 169 4 gusting 7 15.6
2016-May-28 00:10 168 4 gusting 7 15.6
2016-May-28 00:05 167 3 gusting 6 15.6
2016-May-28 00:00 171 3 gusting 6 15.6
2016-May-27 23:55 170 3 gusting 6 15.6
2016-May-27 23:50 169 3 gusting 6 15.6
2016-May-27 23:45 170 3 gusting 5 16.1
2016-May-27 23:40 169 3 gusting 5 16.1
2016-May-27 23:35 171 3 gusting 6 16.1
2016-May-27 23:30 171 2 gusting 6 16.1
2016-May-27 23:25 171 2 gusting 6 16.1
2016-May-27 23:20 175 2 gusting 6 16.1
2016-May-27 23:15 179 2 gusting 5 16.1
2016-May-27 23:10 181 2 gusting 6 16.1
2016-May-27 23:05 173 3 gusting 6 16.1
2016-May-27 23:00 170 3 gusting 6 16.1
2016-May-27 22:55 166 2 gusting 5 16.1
2016-May-27 22:50 163 2 gusting 5 16.1
2016-May-27 22:45 170 2 gusting 4 16.1
2016-May-27 22:40 170 2 gusting 4 16.1
2016-May-27 22:35 165 2 gusting 4 16.1
2016-May-27 22:30 158 1 gusting 4 16.7
2016-May-27 22:25 156 2 gusting 4 16.7
2016-May-27 22:20 156 1 gusting 4 16.7
2016-May-27 22:15 153 0 gusting 3 16.7
2016-May-27 22:10 154 17.2
2016-May-27 22:05 153 0 gusting 2 17.2
2016-May-27 22:00 153 0 gusting 3 17.2
2016-May-27 21:55 154 1 gusting 5 17.2
2016-May-27 21:50 154 1 gusting 5 17.2
2016-May-27 21:45 156 2 gusting 5 17.2
2016-May-27 21:40 167 2 gusting 5 17.2
2016-May-27 21:35 185 1 gusting 5 17.2
2016-May-27 21:30 228 0 gusting 3 17.2
2016-May-27 21:25 230 0 gusting 3 17.2
2016-May-27 21:20 233 0 gusting 2 17.2
2016-May-27 21:15 235 17.2
2016-May-27 21:10 240 0 gusting 3 17.2
2016-May-27 21:05 253 1 gusting 3 17.2
2016-May-27 21:00 266 0 gusting 3 17.2
2016-May-27 20:55 268 0 gusting 3 17.2
2016-May-27 20:50 262 0 gusting 3 17.2
2016-May-27 20:45 257 0 gusting 3 17.8
2016-May-27 20:40 246 1 gusting 6 17.8
2016-May-27 20:35 234 1 gusting 6 17.8
2016-May-27 20:30 141 17.8
2016-May-27 20:25 154 0 gusting 3 17.8
2016-May-27 20:20 169 1 gusting 3 17.8
2016-May-27 20:15 232 1 gusting 3 17.8
2016-May-27 20:10 281 1 gusting 3 17.8
2016-May-27 20:05 311 0 gusting 2 17.8
2016-May-27 20:00 312 0 gusting 2 17.8
2016-May-27 19:55 312 1 gusting 3 18.3
2016-May-27 19:50 315 1 gusting 4 18.3
2016-May-27 19:45 321 1 gusting 4 18.3
2016-May-27 19:40 330 2 gusting 5 18.3
2016-May-27 19:35 331 2 gusting 5 18.3
2016-May-27 19:30 328 1 gusting 5 18.3
2016-May-27 19:25 320 0 gusting 1 18.3
2016-May-27 19:20 321 0 gusting 1 18.3
2016-May-27 19:15 321 0 gusting 2 18.3
2016-May-27 19:10 322 0 gusting 2 18.3
2016-May-27 19:05 323 1 gusting 4 18.3
2016-May-27 19:00 319 1 gusting 4 18.3
2016-May-27 18:55 316 1 gusting 4 18.3
2016-May-27 18:50 324 1 gusting 3 18.3
2016-May-27 18:45 328 1 gusting 4 18.3
2016-May-27 18:40 319 2 gusting 4 18.3
2016-May-27 18:35 310 1 gusting 5 18.3
2016-May-27 18:30 314 1 gusting 5 18.3
2016-May-27 18:25 316 1 gusting 5 18.3
2016-May-27 18:20 318 1 gusting 4 18.9
2016-May-27 18:15 315 2 gusting 6 18.9
2016-May-27 18:10 316 3 gusting 7 18.9
2016-May-27 18:05 328 3 gusting 7 18.9
2016-May-27 18:00 327 2 gusting 5 18.9
2016-May-27 17:55 308 1 gusting 3 18.9
2016-May-27 17:50 306 0 gusting 3 18.9
2016-May-27 17:45 329 1 gusting 6 18.9
2016-May-27 17:40 328 2 gusting 6 18.9
2016-May-27 17:35 325 3 gusting 6 18.9
2016-May-27 17:30 329 3 gusting 6 18.9
2016-May-27 17:25 330 3 gusting 7 18.9
2016-May-27 17:20 330 2 gusting 7 18.9
2016-May-27 17:15 320 1 gusting 4 19.4
2016-May-27 17:10 310 1 gusting 4 19.4
2016-May-27 17:05 277 0 gusting 2 19.4
2016-May-27 17:00 255 0 gusting 2 19.4
2016-May-27 16:55 257 0 gusting 3 19.4
2016-May-27 16:50 286 1 gusting 3 19.4
2016-May-27 16:45 295 0 gusting 3 19.4
2016-May-27 16:40 283 1 gusting 4 18.9
2016-May-27 16:35 298 1 gusting 4 18.9
2016-May-27 16:30 310 1 gusting 2 18.9
2016-May-27 16:25 312 0 gusting 3 18.9
2016-May-27 16:20 312 1 gusting 4 18.9
2016-May-27 16:15 321 2 gusting 4 18.9
2016-May-27 16:10 319 2 gusting 6 18.9
2016-May-27 16:05 317 2 gusting 6 18.9
2016-May-27 16:00 327 3 gusting 6 18.9
2016-May-27 15:55 316 2 gusting 6 18.9
2016-May-27 15:50 293 2 gusting 6 18.9
2016-May-27 15:45 314 2 gusting 6 18.9
2016-May-27 15:40 329 3 gusting 8 18.9
2016-May-27 15:35 320 4 gusting 9 18.9
2016-May-27 15:30 320 4 gusting 9 18.9
2016-May-27 15:25 323 4 gusting 7 18.9
2016-May-27 15:20 323 5 gusting 8 18.9
2016-May-27 15:15 318 5 gusting 8 18.9
2016-May-27 15:10 317 4 gusting 8 19.4
2016-May-27 15:05 332 4 gusting 8 19.4
2016-May-27 15:00 335 4 gusting 8 19.4
2016-May-27 14:55 321 4 gusting 9 19.4
2016-May-27 14:50 312 4 gusting 9 19.4
2016-May-27 14:45 311 4 gusting 8 19.4
2016-May-27 14:40 300 3 gusting 8 19.4
2016-May-27 14:35 301 3 gusting 7 19.4
2016-May-27 14:30 313 3 gusting 7 19.4
2016-May-27 14:25 315 3 gusting 7 20.0
2016-May-27 14:20 320 3 gusting 8 20.0
2016-May-27 14:15 320 3 gusting 10 20.0
2016-May-27 14:10 323 4 gusting 10 20.0
2016-May-27 14:05 325 4 gusting 8 20.0
2016-May-27 14:00 317 4 gusting 8 20.0
2016-May-27 13:55 317 4 gusting 8 20.6
2016-May-27 13:50 317 4 gusting 8 20.6
2016-May-27 13:45 311 3 gusting 8 20.6
2016-May-27 13:40 333 4 gusting 8 20.6
2016-May-27 13:35 340 6 gusting 9 20.6
2016-May-27 13:30 336 6 gusting 9 20.6
2016-May-27 13:25 330 4 gusting 8 20.6
2016-May-27 13:20 307 2 gusting 6 20.6
2016-May-27 13:15 307 3 gusting 7 20.6
2016-May-27 13:10 320 4 gusting 8 20.6
2016-May-27 13:05 325 4 gusting 8 20.6
2016-May-27 13:00 320 4 gusting 8 20.6
2016-May-27 12:55 324 4 gusting 10 20.6
2016-May-27 12:50 331 4 gusting 10 20.6
2016-May-27 12:45 328 3 gusting 7 20.6
2016-May-27 12:40 323 3 gusting 8 20.0
2016-May-27 12:35 316 4 gusting 8 20.0
2016-May-27 12:30 307 4 gusting 8 20.6
2016-May-27 12:25 327 4 gusting 8 20.6
2016-May-27 12:20 336 5 gusting 9 20.6
2016-May-27 12:15 333 5 gusting 9 20.0
2016-May-27 12:10 327 4 gusting 9 20.0
2016-May-27 12:05 320 3 gusting 9 20.6
2016-May-27 12:00 327 2 gusting 7 20.0
2016-May-27 11:55 323 2 gusting 7 20.0
2016-May-27 11:50 328 3 gusting 8 20.0
2016-May-27 11:45 328 3 gusting 8 20.0
2016-May-27 11:40 321 2 gusting 6 20.0
2016-May-27 11:35 336 3 gusting 9 20.0
2016-May-27 11:30 348 4 gusting 9 20.0
2016-May-27 11:25 345 4 gusting 8 20.6
2016-May-27 11:20 333 3 gusting 6 20.0
2016-May-27 11:15 329 3 gusting 6 20.0
2016-May-27 11:10 333 3 gusting 7 20.0
2016-May-27 11:05 340 4 gusting 8 20.0
2016-May-27 11:00 337 4 gusting 8 19.4
2016-May-27 10:55 336 4 gusting 7 19.4
2016-May-27 10:50 340 4 gusting 9 19.4
2016-May-27 10:45 336 5 gusting 9 20.0
2016-May-27 10:40 331 4 gusting 8 20.0
2016-May-27 10:35 327 2 gusting 7 20.0
2016-May-27 10:30 357 1 gusting 5 20.0
2016-May-27 10:25 010 1 gusting 4 19.4
2016-May-27 10:20 007 1 gusting 4 19.4
2016-May-27 10:15 005 1 gusting 3 19.4
2016-May-27 10:10 031 1 gusting 4 19.4
2016-May-27 10:05 012 2 gusting 6 18.9
2016-May-27 10:00 343 3 gusting 7 18.9
2016-May-27 09:55 337 3 gusting 7 18.9
2016-May-27 09:50 341 2 gusting 7 18.9
2016-May-27 09:45 348 2 gusting 6 19.4
2016-May-27 09:40 335 1 gusting 5 18.9
2016-May-27 09:35 325 2 gusting 8 18.9
2016-May-27 09:30 330 2 gusting 8 18.9
2016-May-27 09:25 330 1 gusting 5 18.9
2016-May-27 09:20 338 1 gusting 4 18.9
2016-May-27 09:15 341 2 gusting 4 18.9
2016-May-27 09:10 325 0 gusting 3 19.4
2016-May-27 09:05 292 0 gusting 2 19.4
2016-May-27 09:00 257 0 gusting 3 19.4
2016-May-27 08:55 176 0 gusting 3 19.4
2016-May-27 08:50 165 0 gusting 3 19.4
2016-May-27 08:45 162 19.4
2016-May-27 08:40 162 0 gusting 1 19.4
2016-May-27 08:35 163 0 gusting 1 19.4
2016-May-27 08:30 162 0 gusting 1 19.4
2016-May-27 08:25 163 18.9
2016-May-27 08:20 163 18.9
2016-May-27 08:15 163 18.3
2016-May-27 08:10 163 18.3
2016-May-27 08:05 163 18.3
2016-May-27 08:00 163 17.8
2016-May-27 07:55 163 17.8
2016-May-27 07:50 163 17.2
2016-May-27 07:45 163 0 gusting 1 16.7
2016-May-27 07:40 163 0 gusting 1 16.1
2016-May-27 07:35 162 0 gusting 3 15.6
2016-May-27 07:30 163 1 gusting 3 15.6
2016-May-27 07:25 162 2 gusting 5 15.0
2016-May-27 07:20 163 3 gusting 5 15.0
2016-May-27 07:15 168 3 gusting 5 15.0
2016-May-27 07:10 174 3 gusting 6 14.4
2016-May-27 07:05 173 4 gusting 7 14.4
2016-May-27 07:00 173 5 gusting 7 14.4
2016-May-27 06:55 174 4 gusting 7 14.4
2016-May-27 06:50 174 4 gusting 6 13.9
2016-May-27 06:45 173 3 gusting 6 13.9
2016-May-27 06:40 172 3 gusting 5 13.9
2016-May-27 06:35 170 3 gusting 5 13.9
2016-May-27 06:30 171 3 gusting 6 13.9
2016-May-27 06:25 175 3 gusting 6 13.9
2016-May-27 06:20 173 3 gusting 6 13.9
2016-May-27 06:15 173 3 gusting 6 13.9
2016-May-27 06:10 177 3 gusting 6 13.9
2016-May-27 06:05 174 3 gusting 6 13.9
2016-May-27 06:00 173 3 gusting 6 13.9
2016-May-27 05:55 173 3 gusting 6 13.9
2016-May-27 05:50 169 3 gusting 6 13.9
2016-May-27 05:45 163 3 gusting 6 13.9
2016-May-27 05:40 166 3 gusting 6 13.9
2016-May-27 05:35 171 3 gusting 6 13.9
2016-May-27 05:30 169 4 gusting 6 13.9
2016-May-27 05:25 169 4 gusting 6 13.9
2016-May-27 05:20 172 3 gusting 6 13.9
2016-May-27 05:15 173 2 gusting 5 13.9
2016-May-27 05:10 173 2 gusting 5 13.9
2016-May-27 05:05 174 2 gusting 5 13.9
2016-May-27 05:00 172 2 gusting 5 13.9
2016-May-27 04:55 172 2 gusting 6 14.4
2016-May-27 04:50 173 3 gusting 6 14.4
2016-May-27 04:45 173 3 gusting 5 14.4
2016-May-27 04:40 172 3 gusting 5 14.4
2016-May-27 04:35 172 3 gusting 6 13.9
2016-May-27 04:30 172 3 gusting 6 13.9
2016-May-27 04:25 171 3 gusting 6 14.4
2016-May-27 04:20 171 4 gusting 6 14.4
2016-May-27 04:15 171 4 gusting 8 14.4
2016-May-27 04:10 173 3 gusting 8 14.4
2016-May-27 04:05 175 3 gusting 8 14.4
2016-May-27 04:00 172 3 gusting 6 14.4
2016-May-27 03:55 171 3 gusting 6 14.4
2016-May-27 03:50 171 2 gusting 6 14.4
2016-May-27 03:45 169 2 gusting 4 14.4
2016-May-27 03:40 169 3 gusting 6 14.4
2016-May-27 03:35 171 3 gusting 6 14.4
2016-May-27 03:30 173 3 gusting 6 14.4
2016-May-27 03:25 173 2 gusting 5 14.4
2016-May-27 03:20 172 1 gusting 4 14.4
2016-May-27 03:15 172 1 gusting 4 14.4
2016-May-27 03:10 172 2 gusting 6 14.4
2016-May-27 03:05 172 3 gusting 6 14.4
2016-May-27 03:00 173 3 gusting 6 14.4
2016-May-27 02:55 172 3 gusting 6 14.4
2016-May-27 02:50 171 2 gusting 5 15.0
2016-May-27 02:45 171 2 gusting 4 15.0
2016-May-27 02:40 172 1 gusting 4 15.0
2016-May-27 02:35 176 1 gusting 4 15.0
2016-May-27 02:30 176 1 gusting 2 15.0
2016-May-27 02:25 176 1 gusting 2 15.0
2016-May-27 02:20 176 1 gusting 2 15.0
2016-May-27 02:15 176 1 gusting 3 15.0
2016-May-27 02:10 176 1 gusting 3 15.0
2016-May-27 02:05 176 0 gusting 2 15.6
2016-May-27 02:00 176 0 gusting 2 15.6
2016-May-27 01:55 176 0 gusting 2 15.6
2016-May-27 01:50 176 0 gusting 2 15.6
2016-May-27 01:45 176 0 gusting 2 15.6
2016-May-27 01:40 176 1 gusting 2 15.6
2016-May-27 01:35 176 1 gusting 2 15.6
2016-May-27 01:30 176 1 gusting 2 15.6
2016-May-27 01:25 176 1 gusting 3 15.6
2016-May-27 01:20 176 1 gusting 3 15.0
2016-May-27 01:15 175 1 gusting 3 15.0
2016-May-27 01:10 176 1 gusting 2 15.0
2016-May-27 01:05 177 1 gusting 3 15.0
2016-May-27 01:00 174 2 gusting 4 15.0
2016-May-27 00:55 170 2 gusting 4 15.0
2016-May-27 00:50 169 2 gusting 4 15.6
2016-May-27 00:45 172 1 gusting 4 15.6
2016-May-27 00:40 174 2 gusting 5 15.6
2016-May-27 00:35 173 2 gusting 5 15.6
2016-May-27 00:30 173 3 gusting 5 15.6
2016-May-27 00:25 162 2 gusting 5 15.6
2016-May-27 00:20 129 1 gusting 5 15.6
2016-May-27 00:15 056 1 gusting 3 16.1
2016-May-27 00:10 024 0 gusting 3 16.1
2016-May-27 00:05 011 16.1
2016-May-27 00:00 16.1